REU104 FMEE-FIMP

Flight info

Callsign REU104
Flight time 0h 28m
Altitude 17000
Route EPTEK2N EPTEK EPTEK2E
Aircraft B77W/H-SDE1E2E3FGHIJ2J3J4J5M1RWXY/LB1D1

Departure

Time 2026-04-22 23:03
Airport Roland Garros Airport (FMEE)

Arrival

Time 2026-04-22 23:32
Airport Sir Seewoosagur Ramgoolam International Airport (FIMP)
Time Latitude Longitude Altitude Speed Heading
2026-04-22 22:50 -20.89081 55.51233 113 ft 0 kts 207°
2026-04-22 22:55 -20.89077 55.51235 112 ft 2 kts 207°
2026-04-22 22:55 -20.89050 55.51250 112 ft 2 kts 207°
2026-04-22 22:56 -20.89037 55.51257 112 ft 2 kts 208°
2026-04-22 22:56 -20.89025 55.51266 112 ft 2 kts 236°
2026-04-22 22:56 -20.89019 55.51281 112 ft 2 kts 261°
2026-04-22 22:56 -20.89018 55.51297 112 ft 2 kts 284°
2026-04-22 22:57 -20.89021 55.51306 112 ft 1 kts 297°
2026-04-22 22:57 -20.89022 55.51308 112 ft 0 kts 297°
2026-04-22 22:59 -20.89022 55.51307 112 ft 1 kts 297°
2026-04-22 22:59 -20.89011 55.51284 112 ft 4 kts 296°
2026-04-22 22:59 -20.88997 55.51250 112 ft 6 kts 295°
2026-04-22 23:00 -20.88974 55.51209 112 ft 6 kts 312°
2026-04-22 23:00 -20.88935 55.51180 112 ft 6 kts 339°
2026-04-22 23:00 -20.88891 55.51165 111 ft 6 kts 341°
2026-04-22 23:00 -20.88821 55.51141 111 ft 16 kts 342°
2026-04-22 23:01 -20.88732 55.51070 111 ft 17 kts 301°
2026-04-22 23:01 -20.88658 55.50917 111 ft 24 kts 297°
2026-04-22 23:01 -20.88582 55.50761 111 ft 22 kts 295°
2026-04-22 23:01 -20.88516 55.50614 111 ft 21 kts 295°
2026-04-22 23:02 -20.88437 55.50492 111 ft 14 kts 315°
2026-04-22 23:02 -20.88435 55.50458 111 ft 1 kts 196°
2026-04-22 23:02 -20.88446 55.50464 111 ft 1 kts 127°
2026-04-22 23:02 -20.88447 55.50467 111 ft 0 kts 117°
2026-04-22 23:03 -20.88492 55.50562 111 ft 46 kts 116°
2026-04-22 23:03 -20.88751 55.51129 111 ft 121 kts 117°
2026-04-22 23:03 -20.89227 55.52128 211 ft 173 kts 116°
2026-04-22 23:03 -20.89750 55.53268 1161 ft 163 kts 112°
2026-04-22 23:04 -20.89894 55.54472 1714 ft 174 kts 86°
2026-04-22 23:04 -20.89496 55.55771 2062 ft 197 kts 60°
2026-04-22 23:04 -20.88604 55.56966 2560 ft 214 kts 51°
2026-04-22 23:04 -20.87580 55.58221 3119 ft 230 kts 50°
2026-04-22 23:05 -20.86471 55.59576 3684 ft 246 kts 50°
2026-04-22 23:05 -20.85392 55.61039 4327 ft 256 kts 63°
2026-04-22 23:05 -20.84791 55.62824 5092 ft 260 kts 75°
2026-04-22 23:05 -20.84316 55.64671 5990 ft 261 kts 75°
2026-04-22 23:06 -20.83838 55.66553 6774 ft 265 kts 75°
2026-04-22 23:06 -20.83348 55.68478 7547 ft 269 kts 75°
2026-04-22 23:06 -20.82860 55.70399 8335 ft 272 kts 75°
2026-04-22 23:06 -20.82360 55.72364 9084 ft 276 kts 75°
2026-04-22 23:07 -20.81858 55.74333 9860 ft 278 kts 75°
2026-04-22 23:07 -20.81341 55.76364 10517 ft 286 kts 75°
2026-04-22 23:07 -20.80805 55.78468 10952 ft 303 kts 75°
2026-04-22 23:07 -20.80235 55.80702 11406 ft 320 kts 75°
2026-04-22 23:08 -20.79640 55.83033 11932 ft 335 kts 75°
2026-04-22 23:08 -20.79013 55.85490 12541 ft 348 kts 75°
2026-04-22 23:08 -20.78372 55.87997 13357 ft 356 kts 75°
2026-04-22 23:08 -20.77712 55.90580 14305 ft 361 kts 75°
2026-04-22 23:09 -20.77050 55.93166 15393 ft 364 kts 75°
2026-04-22 23:09 -20.76392 55.95734 16393 ft 367 kts 75°
2026-04-22 23:09 -20.75713 55.98386 16920 ft 369 kts 75°
2026-04-22 23:09 -20.75037 56.01021 17021 ft 369 kts 75°
2026-04-22 23:10 -20.74357 56.03672 17026 ft 367 kts 75°
2026-04-22 23:10 -20.73679 56.06311 17026 ft 367 kts 75°
2026-04-22 23:10 -20.73002 56.08944 17024 ft 366 kts 75°
2026-04-22 23:10 -20.72335 56.11539 17021 ft 366 kts 75°
2026-04-22 23:11 -20.71651 56.14197 17020 ft 368 kts 75°
2026-04-22 23:11 -20.70972 56.16835 17022 ft 368 kts 75°
2026-04-22 23:11 -20.70290 56.19481 17016 ft 369 kts 75°
2026-04-22 23:11 -20.69605 56.22137 17014 ft 368 kts 75°
2026-04-22 23:12 -20.68923 56.24783 17020 ft 369 kts 75°
2026-04-22 23:12 -20.68246 56.27406 17016 ft 367 kts 75°
2026-04-22 23:12 -20.67556 56.30073 17018 ft 369 kts 75°
2026-04-22 23:12 -20.66883 56.32679 17019 ft 368 kts 75°
2026-04-22 23:13 -20.66194 56.35339 17017 ft 367 kts 75°
2026-04-22 23:13 -20.65512 56.37974 17014 ft 368 kts 75°
2026-04-22 23:13 -20.64822 56.40638 17010 ft 368 kts 75°
2026-04-22 23:13 -20.64131 56.43303 17010 ft 368 kts 75°
2026-04-22 23:14 -20.63448 56.45937 17010 ft 369 kts 75°
2026-04-22 23:14 -20.62764 56.48573 17012 ft 368 kts 75°
2026-04-22 23:14 -20.62078 56.51212 17011 ft 370 kts 75°
2026-04-22 23:14 -20.61388 56.53869 17011 ft 370 kts 75°
2026-04-22 23:15 -20.60698 56.56518 16994 ft 366 kts 75°
2026-04-22 23:15 -20.60028 56.59094 16713 ft 357 kts 75°
2026-04-22 23:15 -20.59365 56.61638 16231 ft 355 kts 75°
2026-04-22 23:15 -20.58707 56.64162 15698 ft 355 kts 75°
2026-04-22 23:16 -20.58046 56.66697 15212 ft 353 kts 75°
2026-04-22 23:16 -20.57391 56.69208 14737 ft 350 kts 75°
2026-04-22 23:16 -20.56732 56.71732 14251 ft 349 kts 75°
2026-04-22 23:16 -20.56086 56.74201 13768 ft 347 kts 75°
2026-04-22 23:17 -20.55429 56.76716 13274 ft 345 kts 75°
2026-04-22 23:17 -20.54782 56.79186 12790 ft 344 kts 75°
2026-04-22 23:17 -20.54144 56.81625 12311 ft 342 kts 75°
2026-04-22 23:17 -20.53509 56.84050 11830 ft 341 kts 75°
2026-04-22 23:18 -20.52868 56.86494 11344 ft 339 kts 75°
2026-04-22 23:18 -20.52238 56.88896 10865 ft 338 kts 75°
2026-04-22 23:18 -20.51609 56.91293 10620 ft 328 kts 75°
2026-04-22 23:18 -20.51006 56.93587 10539 ft 314 kts 75°
2026-04-22 23:19 -20.50422 56.95811 10432 ft 302 kts 75°
2026-04-22 23:19 -20.49865 56.97928 10306 ft 292 kts 75°
2026-04-22 23:19 -20.49322 56.99990 10177 ft 282 kts 75°
2026-04-22 23:19 -20.48802 57.01966 10051 ft 272 kts 75°
2026-04-22 23:20 -20.48294 57.03895 9788 ft 269 kts 75°
2026-04-22 23:20 -20.47788 57.05817 9419 ft 270 kts 75°
2026-04-22 23:20 -20.47283 57.07735 9070 ft 269 kts 75°
2026-04-22 23:20 -20.46777 57.09654 8736 ft 269 kts 75°
2026-04-22 23:21 -20.46273 57.11565 8412 ft 268 kts 75°
2026-04-22 23:21 -20.45766 57.13487 8086 ft 266 kts 75°
2026-04-22 23:21 -20.45260 57.15402 7762 ft 265 kts 75°
2026-04-22 23:21 -20.44762 57.17289 7441 ft 264 kts 75°
2026-04-22 23:22 -20.44264 57.19174 7123 ft 263 kts 75°
2026-04-22 23:22 -20.43770 57.21044 6811 ft 262 kts 75°
2026-04-22 23:22 -20.43273 57.22922 6495 ft 261 kts 75°
2026-04-22 23:22 -20.42784 57.24769 6183 ft 259 kts 75°
2026-04-22 23:23 -20.42084 57.26526 6019 ft 252 kts 62°
2026-04-22 23:23 -20.41189 57.28137 5963 ft 252 kts 60°
2026-04-22 23:23 -20.40276 57.29724 5739 ft 249 kts 60°
2026-04-22 23:23 -20.39363 57.31310 5559 ft 247 kts 60°
2026-04-22 23:24 -20.38465 57.32875 5417 ft 248 kts 60°
2026-04-22 23:24 -20.37563 57.34446 5285 ft 247 kts 60°
2026-04-22 23:24 -20.36666 57.36009 5157 ft 247 kts 60°
2026-04-22 23:24 -20.35766 57.37590 5021 ft 246 kts 63°
2026-04-22 23:25 -20.35094 57.39252 4892 ft 240 kts 71°
2026-04-22 23:25 -20.34520 57.40931 4762 ft 232 kts 71°
2026-04-22 23:25 -20.33980 57.42520 4642 ft 224 kts 71°
2026-04-22 23:25 -20.33450 57.44072 4511 ft 217 kts 71°
2026-04-22 23:26 -20.32947 57.45564 4373 ft 210 kts 76°
2026-04-22 23:26 -20.32931 57.47087 4239 ft 205 kts 103°
2026-04-22 23:26 -20.33408 57.48532 4142 ft 206 kts 112°
2026-04-22 23:26 -20.34043 57.49876 4035 ft 197 kts 115°
2026-04-22 23:27 -20.34665 57.51142 3898 ft 185 kts 115°
2026-04-22 23:27 -20.35245 57.52328 3626 ft 173 kts 114°
2026-04-22 23:27 -20.35782 57.53432 3386 ft 163 kts 114°
2026-04-22 23:27 -20.36298 57.54495 3159 ft 152 kts 114°
2026-04-22 23:28 -20.36765 57.55455 2973 ft 140 kts 113°
2026-04-22 23:28 -20.37210 57.56374 2781 ft 138 kts 114°
2026-04-22 23:28 -20.37646 57.57273 2572 ft 136 kts 114°
2026-04-22 23:28 -20.38086 57.58178 2363 ft 136 kts 114°
2026-04-22 23:29 -20.38523 57.59078 2151 ft 135 kts 114°
2026-04-22 23:29 -20.38958 57.59975 1950 ft 135 kts 114°
2026-04-22 23:29 -20.39387 57.60860 1732 ft 135 kts 114°
2026-04-22 23:29 -20.39820 57.61753 1533 ft 134 kts 114°
2026-04-22 23:30 -20.40253 57.62647 1330 ft 135 kts 115°
2026-04-22 23:30 -20.40693 57.63554 1114 ft 136 kts 115°
2026-04-22 23:30 -20.41137 57.64454 874 ft 137 kts 116°
2026-04-22 23:30 -20.41589 57.65352 642 ft 138 kts 114°
2026-04-22 23:31 -20.42025 57.66275 445 ft 137 kts 116°
2026-04-22 23:31 -20.42460 57.67183 253 ft 139 kts 116°
2026-04-22 23:31 -20.42876 57.68055 185 ft 114 kts 116°
2026-04-22 23:31 -20.43136 57.68589 166 ft 55 kts 117°
2026-04-22 23:32 -20.43294 57.68925 152 ft 47 kts 116°
2026-04-22 23:32 -20.43434 57.69211 137 ft 33 kts 117°
2026-04-22 23:32 -20.43515 57.69347 128 ft 18 kts 145°
2026-04-22 23:32 -20.43626 57.69328 127 ft 16 kts 223°
2026-04-22 23:33 -20.43624 57.69202 134 ft 19 kts 294°
2026-04-22 23:33 -20.43573 57.69094 141 ft 14 kts 297°
2026-04-22 23:33 -20.43515 57.68976 149 ft 17 kts 297°
2026-04-22 23:33 -20.43460 57.68865 156 ft 21 kts 297°
2026-04-22 23:34 -20.43372 57.68684 163 ft 27 kts 297°
2026-04-22 23:34 -20.43292 57.68516 170 ft 23 kts 297°
2026-04-22 23:34 -20.43225 57.68377 175 ft 19 kts 296°
2026-04-22 23:34 -20.43171 57.68260 180 ft 15 kts 296°
2026-04-22 23:35 -20.43130 57.68165 182 ft 12 kts 284°
2026-04-22 23:35 -20.43154 57.68099 186 ft 8 kts 225°
2026-04-22 23:35 -20.43189 57.68061 187 ft 6 kts 229°
2026-04-22 23:35 -20.43212 57.68030 188 ft 6 kts 231°
2026-04-22 23:36 -20.43241 57.67984 190 ft 6 kts 238°
2026-04-22 23:36 -20.43256 57.67960 191 ft 1 kts 237°
2026-04-22 23:36 -20.43257 57.67958 191 ft 0 kts 237°